SHIJIAN-30A (SJ-30A) (66545 NORAD) Tracking and Keplerian Element Data

This shows tracking and keplerian element data for the satellite.

Feedback or suggestion? Click here.




ElementValue
Catalog66545
NameSHIJIAN-30A (SJ-30A)
Epoch Orbit471
Epoch Day354.20833152
Epoch Year2025
RAAN297.8734
Inclination51.8001
Eccentricity0.0013024
Argument of Perigee22.4744
Mean Anonmoly337.68
Mean Motion15.15608423
Decay Rate7.993E-05
L11 66545U 25266A 25354.20833152 .00007993 00000+0 43046-3 0 9997
L22 66545 51.8001 297.8734 0013024 22.4744 337.6800 15.15608423 4710



Live tracking and technical data element details for SHIJIAN-30A (SJ-30A) (NORAD 66545). SHIJIAN-30A (SJ-30A) can be tracked NOW for your location showing map with azimuth and elevation plus other details from your city location.







IsCatalogInMostPopularTable: catalog: 66545, numindb: 5
Update: records affected: 1



GetName: 66545 SHIJIAN-30A (SJ-30A)

Hit Count: updated at: Mon, 20 Apr 2026 09:57:46 GMT